Notices

What's New in latest Release from April 7th, 2021:

- Updated Glossary, including Speed of Maximum Gust, and Total Hourly Precipitation

- Updated national and regional climate services offices contacts and prices information

- Addition of station inventory lists for 1981-2010, 1971-2000, and 1961-1990 Normals.

If you haven't already, please take our survey and provide feedback about our website: https://eccc.sondage-survey.ca/f/LanguageSelection.aspx?s=442ca660-fcf1-47c0-95a9-59707d6fd709

Hourly Data Report for November 18, 2003

TORONTO CITY
ONTARIO

43°40'00.000" N
79°24'00.000" W
112.50 m
6158355
71508
XTO

Download Data

Hourly Data (November 2003)
Hourly Data Report for November 18, 2003
TIME
LST
Temp Definition
°C
Dew Point Definition
°C
Rel Hum Definition
%
Precip. Amount Definition
mm

Wind Dir Definition
10's deg

Wind Spd Definition
km/h
Visibility Definition
km
Stn Press Definition
kPa
Hmdx Definition


Wind Chill Definition


Weather Definition


00:00 5.5 4.9 96   LegendMM LegendMM LegendMM 101.06     LegendNANA
01:00 5.3 4.9 97   LegendMM LegendMM LegendMM 101.03     LegendNANA
02:00 5.3 5.0 98   LegendMM LegendMM LegendMM 101.00     LegendNANA
03:00 4.9 4.8 99   LegendMM LegendMM LegendMM 100.92     LegendNANA
04:00 4.8 4.8 100   LegendMM LegendMM LegendMM 100.83     LegendNANA
05:00 4.7 4.7 100   LegendMM LegendMM LegendMM 100.78     LegendNANA
06:00 4.9 4.9 100   LegendMM LegendMM LegendMM 100.73     LegendNANA
07:00 5.3 5.3 100   LegendMM LegendMM LegendMM 100.70     LegendNANA
08:00 5.7 5.6 99   LegendMM LegendMM LegendMM 100.62     LegendNANA
09:00 6.2 5.8 97   LegendMM LegendMM LegendMM 100.56     LegendNANA
10:00 6.9 5.9 93   LegendMM LegendMM LegendMM 100.52     LegendNANA
11:00 7.5 5.7 88   LegendMM LegendMM LegendMM 100.38     LegendNANA
12:00 7.5 6.0 90   LegendMM LegendMM LegendMM 100.25     LegendNANA
13:00 8.2 6.0 86   LegendMM LegendMM LegendMM 100.12     LegendNANA
14:00 8.7 6.7 87   LegendMM LegendMM LegendMM 99.99     LegendNANA
15:00 9.7 7.5 86   LegendMM LegendMM LegendMM 99.88     LegendNANA
16:00 10.4 7.8 84   LegendMM LegendMM LegendMM 99.77     LegendNANA
17:00 10.7 7.9 83   LegendMM LegendMM LegendMM 99.62     LegendNANA
18:00 11.1 8.3 83   LegendMM LegendMM LegendMM 99.60     LegendNANA
19:00 11.0 8.2 83   LegendMM LegendMM LegendMM 99.50     LegendNANA
20:00 10.3 8.2 87   LegendMM LegendMM LegendMM 99.39     LegendNANA
21:00 10.3 8.2 87   LegendMM LegendMM LegendMM 99.32     LegendNANA
22:00 9.9 9.0 94   LegendMM LegendMM LegendMM 99.25     LegendNANA
23:00 10.8 10.2 96   LegendMM LegendMM LegendMM 99.13     LegendNANA

Notes on Data Quality.

Legend

  • E = Estimated
  • M = Missing
  • NA = Not Available*
  • [empty] = Indicates an unobserved value
Date modified: